User: anonymous   Login
Location: Donald C. Martin Observatory
(38.3885°N, 82.3916°W)
Time: 07:05:52
(UTC-04:00)
Language:

Cosmos 1484 Rocket - Orbit

View from above orbital plane
View from above orbital plane
View from above satellite
View from above satellite

Ground track
Ground track

The orbit data is extracted from the following two-line orbital elements,

1 14208U 83075B   17291.58825380 +.00000401 +00000-0 +27616-4 0  9998
2 14208 097.3414 297.0994 0040902 066.3979 294.1538 15.10511300865839
Epoch (UTC): 18 October 2017 14:07:05
Eccentricity: 0.0040902
inclination: 97.3414°
perigee height: 506 km
apogee height: 563 km
right ascension of ascending node: 297.0994°
argument of perigee: 66.3979°
revolutions per day: 15.10511300
mean anomaly at epoch: 294.1538°
orbit number at epoch: 86583

The dashed part of the orbit path shows where the satellite is in the earth's shadow,  

DLR